Regional Weather Roundup
Issued by NWS

Home | Current Version | Previous Version | Graphics & Text | Print | Product List | Glossary On
Versions: 1 2 3 4 5 6 7 8 9 10 11 12 13 14 15 16 17 18 19 20 21 22 23 24 25 26 27 28 29 30 31 32 33 34 35 36 37 38 39 40 41 42 43 44 45 46 47 48 49 50
000
ASUS43 KBIS 011702
RWRND

NORTH DAKOTA REGIONAL WEATHER ROUNDUP
NATIONAL WEATHER SERVICE BISMARCK ND
1200 PM CDT MON JUN 01 2015

NOTE: "FAIR" INDICATES FEW OR NO CLOUDS BELOW 12,000 FEET WITH NO
SIGNIFICANT WEATHER AND/OR OBSTRUCTIONS TO VISIBILITY.


NDZ001>003-009>011-017-011800-
NORTHWEST NORTH DAKOTA

CITY           SKY/WX    TMP DP  RH WIND       PRES   REMARKS
WILLISTON      MOSUNNY   76  55  48 S8        29.81F
MINOT          MOSUNNY   71  52  50 SE14G23   29.86F
MINOT AFB      MOSUNNY   72  58  61 S18       29.85F
$$

NDZ018>021-031>035-040>046-011800-
SOUTHWEST NORTH DAKOTA

CITY           SKY/WX    TMP DP  RH WIND       PRES   REMARKS
BISMARCK       MOSUNNY   70  53  54 S13       29.93F
DICKINSON      MOSUNNY   75  56  51 S17       29.87F
GARRISON         N/A     69  52  54 S14       29.88F
HETTINGER ARPT MOSUNNY   68  56  65 S10       29.93R
$$

NDZ004>008-012>016-024-026-027-054-011800-
NORTHEAST NORTH DAKOTA

CITY           SKY/WX    TMP DP  RH WIND       PRES   REMARKS
GRAND FORKS    CLOUDY    67  43  41 S20G29    30.05F
GRND FRKS AFB  CLOUDY    66  44  44 S20       30.04F
DEVILS LAKE    SUNNY     68  46  45 S23G29    29.96F
$$

NDZ022-023-025-028>030-036>039-047>053-011800-
SOUTHEAST NORTH DAKOTA

CITY           SKY/WX    TMP DP  RH WIND       PRES   REMARKS
FARGO          CLOUDY    65  48  54 SE23G29   30.07F
JAMESTOWN      SUNNY     68  47  46 S20G29    29.98F
$$



USA.gov is the U.S. government's official web portal to all federal, state and local government web resources and services.